This demonstration page uses our WeatherBlox Daily Observations layout. Learn more.

Left ArrowRight Arrow

39.51506, -84.39828

Hourly Observations for April 15, 2020

Temp ( °F °C ) Dew Point ( °F °C ) Humidity (%) Winds ( mph kmh ) Pressure ( in mb ) Visibility ( mi km ) Precip ( " mm )
12:15 am 00:15 undefined 29 -1.4 25 -4.1 82 82 Calm 30.21 1023 N/A 0 0
12:35 am 00:35 undefined 29 -1.7 25 -4 85 85 Calm 30.21 1023 N/A 0 0
12:55 am 00:55 Clear 29 -1.9 24 -4.3 84 84 Calm 30.22 1023 N/A 0 0
1:15 am 01:15 undefined 28 -2.2 25 -4.1 87 87 Calm 30.21 1023 N/A 0 0
1:35 am 01:35 undefined 27 -2.7 24 -4.6 87 87 Calm 30.21 1023 N/A 0 0
1:55 am 01:55 Clear 29 -1.9 25 -4 86 86 Calm 30.21 1023 10 16.0934 0 0
2:15 am 02:15 undefined 28 -2.2 25 -3.9 88 88 Calm 30.21 1023 N/A 0 0
2:35 am 02:35 undefined 27 -2.6 24 -4.2 89 89 Calm 30.2 1023 N/A 0 0
2:55 am 02:55 undefined 28 -2.5 25 -3.9 90 90 Calm 30.19 1022 N/A 0 0
3:15 am 03:15 undefined 27 -2.9 25 -3.8 94 94 Calm 30.19 1022 N/A 0 0
3:35 am 03:35 undefined 26 -3.5 24 -4.2 95 95 Calm 30.18 1022 N/A 0 0
3:55 am 03:55 undefined 27 -2.9 26 -3.6 95 95 Calm 30.18 1022 N/A 0 0
4:15 am 04:15 undefined 25 -3.7 24 -4.3 96 96 W 3 6 30.18 1022 N/A 0 0
4:35 am 04:35 Clear 27 -2.9 25 -3.9 93 93 WSW 3 6 30.17 1022 10 16.0934 0 0
4:55 am 04:55 Clear 26 -3.2 25 -3.8 96 96 Calm 30.17 1022 10 16.0934 0 0
5:15 am 05:15 Clear 26 -3.5 25 -3.8 98 98 Calm 30.17 1022 7 11.26538 0 0
5:35 am 05:35 undefined 26 -3.4 25 -3.8 97 97 Calm 30.16 1021 N/A 0 0
5:55 am 05:55 Clear 26 -3.2 26 -3.6 97 97 Calm 30.16 1021 10 16.0934 0 0
6:15 am 06:15 Clear 25 -3.8 24 -4.2 97 97 Calm 30.16 1021 7 11.26538 0 0
6:35 am 06:35 Clear 25 -3.9 24 -4.2 98 98 SW 3 6 30.16 1021 10 16.0934 0 0
6:55 am 06:55 Clear with Mist and Fog 26 -3.3 26 -3.5 99 99 SW 3 6 30.15 1021 5 8.0467 0 0
7:15 am 07:15 Sunny with Mist and Fog 25 -3.7 25 -3.9 99 99 Calm 30.16 1021 5 8.0467 0 0
7:35 am 07:35 Sunny with Mist and Fog 26 -3.5 25 -3.8 98 98 Calm 30.15 1021 5 8.0467 0 0
7:55 am 07:55 Sunny 27 -2.9 26 -3.4 96 96 WSW 3 6 30.15 1021 7 11.26538 0 0
8:15 am 08:15 Sunny 30 -1.3 28 -2.2 94 94 Calm 30.15 1021 10 16.0934 0 0
8:35 am 08:35 Sunny 32 0 26 -3.1 80 80 SSW 6 9 30.14 1020 10 16.0934 0 0
8:55 am 08:55 Sunny 35 1.4 26 -3.2 72 72 SSW 6 9 30.12 1020 10 16.0934 0 0
9:15 am 09:15 Sunny 38 3.1 26 -3.3 63 63 S 7 11 30.12 1020 10 16.0934 0 0
9:35 am 09:35 Sunny 39 4 26 -3.2 60 60 SSW 10 17 30.11 1020 10 16.0934 0 0
9:55 am 09:55 Sunny 42 5.3 25 -3.7 53 53 SSW 14 22 30.1 1019 10 16.0934 0 0
10:15 am 10:15 Sunny 44 6.5 24 -4.5 46 46 SSW 17 28 30.09 1019 10 16.0934 0 0
10:35 am 10:35 Sunny 45 7.2 21 -5.9 39 39 SW 22 35 30.09 1019 10 16.0934 0 0
10:55 am 10:55 Sunny 47 8.2 21 -6.3 35 35 SSW 23 37 30.07 1018 10 16.0934 0 0
11:15 am 11:15 Sunny 47 8.5 20 -6.6 34 34 SW 24 39 30.07 1018 10 16.0934 0 0
11:35 am 11:35 Sunny 48 8.7 20 -6.8 33 33 SSW 23 37 30.05 1018 10 16.0934 0 0
11:55 am 11:55 Sunny 49 9.4 22 -5.7 34 34 SSW 22 35 30.04 1017 10 16.0934 0 0
12:15 pm 12:15 Sunny 50 9.8 21 -6 33 33 S 21 33 30.03 1017 10 16.0934 0 0
12:35 pm 12:35 Partly Cloudy 51 10.6 23 -5 33 33 SSW 17 28 30.03 1017 10 16.0934 0 0
12:55 pm 12:55 Sunny 51 10.8 22 -5.6 31 31 SW 21 33 30.01 1016 10 16.0934 0 0
1:15 pm 13:15 Cloudy 52 11.2 22 -5.3 31 31 SSW 25 41 30 1016 10 16.0934 0 0
1:35 pm 13:35 Cloudy 51 10.3 21 -6.3 31 31 SW 22 35 30 1016 10 16.0934 0 0
1:55 pm 13:55 Cloudy 51 10.6 23 -5.2 33 33 WSW 25 41 29.99 1015 10 16.0934 0 0
2:15 pm 14:15 Cloudy 49 9.7 22 -5.8 33 33 SW 28 44 29.99 1016 10 16.0934 0 0
2:35 pm 14:35 Cloudy 49 9.6 25 -4 38 38 W 25 41 30 1016 10 16.0934 0 0
2:55 pm 14:55 Cloudy 49 9.3 27 -2.9 43 43 WSW 30 48 30.01 1016 10 16.0934 0 0
3:15 pm 15:15 Cloudy 46 7.9 30 -0.9 54 54 W 20 31 30.02 1017 10 16.0934 0 0
3:35 pm 15:35 Cloudy 45 7.1 33 0.8 65 65 W 21 33 30.04 1017 10 16.0934 0 0
3:55 pm 15:55 Mostly Cloudy with Drizzle 44 6.8 35 1.6 70 70 WNW 18 30 30.04 1017 10 16.0934 0 0
4:15 pm 16:15 Mostly Cloudy 46 7.9 35 1.7 65 65 WSW 21 33 30.02 1017 10 16.0934 0 0
4:35 pm 16:35 Partly Cloudy 49 9.5 33 0.5 54 54 WSW 25 41 30.01 1016 10 16.0934 0 0
4:55 pm 16:55 Cloudy with Light Rain 40 4.2 36 2 86 86 W 18 30 30.06 1018 5 8.0467 0 0
5:15 pm 17:15 Cloudy 40 4.3 37 2.5 88 88 W 8 13 30.06 1018 10 16.0934 0 0
5:35 pm 17:35 Cloudy 41 5.2 36 2 80 80 WNW 14 22 30.06 1018 10 16.0934 0 0
5:55 pm 17:55 Cloudy with Drizzle 42 5.5 34 1.3 75 75 W 15 24 30.07 1018 10 16.0934 0 0
6:15 pm 18:15 Partly Cloudy 42 5.6 31 -0.4 66 66 W 15 24 30.09 1019 10 16.0934 0 0
6:35 pm 18:35 Partly Cloudy 43 6 29 -1.6 59 59 WNW 17 28 30.1 1019 10 16.0934 0 0
6:55 pm 18:55 Mostly Cloudy 42 5.5 28 -2 59 59 NNW 16 26 30.11 1020 10 16.0934 0 0
7:15 pm 19:15 Sunny 41 4.9 26 -3.2 56 56 NW 14 22 30.12 1020 10 16.0934 0 0
7:35 pm 19:35 Sunny 40 4.5 25 -4.1 54 54 WNW 15 24 30.13 1020 10 16.0934 0 0
7:55 pm 19:55 Sunny 39 4 24 -4.5 54 54 WNW 15 24 30.13 1020 10 16.0934 0 0
8:15 pm 20:15 Sunny 38 3.1 23 -4.9 56 56 NW 7 11 30.15 1021 10 16.0934 0 0
8:35 pm 20:35 Clear 37 2.8 23 -4.9 57 57 WNW 7 11 30.16 1021 10 16.0934 0 0
8:55 pm 20:55 Partly Cloudy 36 2.1 23 -4.9 60 60 WNW 5 7 30.16 1021 10 16.0934 0 0
9:15 pm 21:15 Clear 35 1.8 24 -4.7 62 62 NW 6 9 30.17 1022 10 16.0934 0 0
9:35 pm 21:35 Clear 35 1.7 24 -4.4 64 64 NW 6 9 30.18 1022 10 16.0934 0 0
9:55 pm 21:55 Clear 34 1.3 24 -4.5 66 66 NW 7 11 30.2 1023 10 16.0934 0 0
10:15 pm 22:15 Clear 35 1.4 24 -4.2 67 67 NNW 6 9 30.21 1023 10 16.0934 0 0
10:35 pm 22:35 Clear 34 1.1 25 -4 69 69 NNW 5 7 30.22 1023 10 16.0934 0 0
10:55 pm 22:55 Clear 33 0.4 25 -3.8 74 74 NNW 3 6 30.23 1024 10 16.0934 0 0
11:15 pm 23:15 Clear 33 0.4 26 -3.3 77 77 N 3 6 30.23 1024 10 16.0934 0 0
11:35 pm 23:35 Clear 30 -0.9 27 -2.7 88 88 Calm 30.25 1024 10 16.0934 0 0
11:55 pm 23:55 Clear 30 -1.1 28 -2.3 92 92 Calm 30.25 1024 10 16.0934 0 0

Powered by AerisWeather